Regional Weather Roundup
Issued by NWS

Home | Current Version | Previous Version | Text Only | Print | Product List | Glossary On
Versions: 1 2 3 4 5 6 7 8 9 10 11 12 13 14 15 16 17 18 19 20 21 22 23 24 25 26 27 28
000
ASUS45 KPSR 261210
RWRAZ

ARIZONA HOURLY REGIONAL WEATHER ROUNDUP
NATIONAL WEATHER SERVICE PHOENIX AZ
500 AM MST THU APR 26 2018

NOTE: FAIR INDICATES FEW OR NO CLOUDS BELOW 12,000 FEET WITH NO
SIGNIFICANT WEATHER AND/OR OBSTRUCTIONS TO VISIBILITY.

AZZ001>003-036-261300-
NORTHWEST ARIZONA

CITY           SKY/WX    TMP DP  RH WIND       PRES   REMARKS
BULLHEAD CITY  CLEAR     72  19  14 E3        29.82S
KINGMAN        CLEAR     53  19  26 CALM      29.99S
6HR MIN TEMP:  53; 6HR MAX TEMP:  65;

$$

AZZ004>008-015-016-018-261300-
NORTH CENTRAL ARIZONA

CITY           SKY/WX    TMP DP  RH WIND       PRES   REMARKS
GRAND CANYON   PTCLDY    32  15  49 E3        30.19S HAZE
6HR MIN TEMP:  32; 6HR MAX TEMP:  41;

WILLIAMS       CLEAR     39  18  41 S12       30.16S WCI  32
PRESCOTT       PTCLDY    50  24  36 S3        30.08S
6HR MIN TEMP:  50; 6HR MAX TEMP:  68;

FLAGSTAFF      PTCLDY    33  18  53 CALM      30.19S
6HR MIN TEMP:  32; 6HR MAX TEMP:  43;

PAYSON         PTCLDY    54  18  24 NW5       30.08S
PAGE           CLEAR     56  20  24 SE5       30.06R
6HR MIN TEMP:  55; 6HR MAX TEMP:  65;

$$

AZZ009>014-017-261300-
NORTHEAST ARIZONA

CITY           SKY/WX    TMP DP  RH WIND       PRES   REMARKS
WINSLOW        PTCLDY    44  11  26 SE3       30.10R
6HR MIN TEMP:  42; 6HR MAX TEMP:  55;

SAINT JOHNS    PTCLDY    41  18  39 CALM      30.12S
6HR MIN TEMP:  39; 6HR MAX TEMP:  53;

WINDOW ROCK    PTCLDY    33   0  24 CALM      30.18R
6HR MIN TEMP:  30; 6HR MAX TEMP:  46;

SHOW LOW       PTCLDY    41   9  26 CALM      30.17R
$$

AZZ540-542>544-546-548-261300-
GREATER PHOENIX AREA

CITY           SKY/WX    TMP DP  RH WIND       PRES   REMARKS
PHOENIX        PTCLDY    73  36  25 E6        29.83R
6HR MIN TEMP:  73; 6HR MAX TEMP:  87;

BUCKEYE        CLEAR     64  23  20 N6        29.84S
LUKE AFB       CLEAR     72  32  23 SW7       29.82S
6HR MIN TEMP:  71; 6HR MAX TEMP:  80;

DEER VALLEY    CLEAR     68  25  19 CALM      29.85S
6HR MIN TEMP:  65; 6HR MAX TEMP:  78;

SCOTTSDALE     CLEAR     71  33  24 SE3       29.86S
6HR MIN TEMP:  71; 6HR MAX TEMP:  82;

MESA-GATEWAY   CLEAR     64  27  24 SE8       29.97R
$$

AZZ539-553-261300-
SOUTHWEST MARICOPA COUNTY AND PINAL COUNTY

CITY           SKY/WX    TMP DP  RH WIND       PRES   REMARKS
CASA GRANDE    PTCLDY    65  25  22 CALM      29.88S
6HR MIN TEMP:  62; 6HR MAX TEMP:  75;

GILA BEND      FAIR      70  24  17 SE5       29.82S
6HR MIN TEMP:  70; 6HR MAX TEMP:  82;

$$

AZZ503-504-507>509-261300-
SOUTHEAST ARIZONA

CITY           SKY/WX    TMP DP  RH WIND       PRES   REMARKS
TUCSON         PTCLDY    64  29  26 SE7       29.96F
6HR MIN TEMP:  64; 6HR MAX TEMP:  77;

DAVIS-MONTHAN  MOCLDY    60  24  25 SE8       29.94F
6HR MIN TEMP:  60; 6HR MAX TEMP:  71;

NOGALES        PTCLDY    55  32  41 S3        30.02S
6HR MIN TEMP:  55; 6HR MAX TEMP:  64;

SIERRA VISTA   PTCLDY    62  22  21 W8        30.06F
6HR MIN TEMP:  58; 6HR MAX TEMP:  70;

DOUGLAS        PTCLDY    55  19  24 E5        30.04R
6HR MIN TEMP:  53; 6HR MAX TEMP:  66;

SAFFORD        CLEAR     58  16  19 CALM      29.96R
6HR MIN TEMP:  54; 6HR MAX TEMP:  74;

$$

AZZ532-261300-
SOUTHWEST ARIZONA

CITY           SKY/WX    TMP DP  RH WIND       PRES   REMARKS
YUMA           MOCLDY    74  34  23 CALM      29.81S
6HR MIN TEMP:  74; 6HR MAX TEMP:  80;

$$

CAZ041-043-047-048-061-525>527-560>570-261300-
SOUTHERN CALIFORNIA

CITY           SKY/WX    TMP DP  RH WIND       PRES   REMARKS
DOWNTOWN L.A.  CLOUDY    56  51  84 CALM      29.99S
6HR MIN TEMP:  55; 6HR MAX TEMP:  58;

L.A. AIRPORT   CLOUDY    56  51  84 W5        30.00S
6HR MIN TEMP:  56; 6HR MAX TEMP:  57;

SAN DIEGO      MOCLDY    58  50  75 NE5       30.01S
6HR MIN TEMP:  58; 6HR MAX TEMP:  60;

BURBANK        CLOUDY    53  52  96 S3        29.99
6HR MIN TEMP:  53; 6HR MAX TEMP:  59;

ONTARIO        PTCLDY    52  48  86 W6        29.99R
6HR MIN TEMP:  52; 6HR MAX TEMP:  61;

RIVERSIDE      CLEAR     53  50  89 W5        29.99R
6HR MIN TEMP:  53; 6HR MAX TEMP:  61;

PALM SPRINGS   CLEAR     67  46  47 CALM      29.83S
6HR MIN TEMP:  67; 6HR MAX TEMP:  82;

EL CENTRO NAS  MOCLDY    78  12   8 W16       29.81S
6HR MIN TEMP:  77; 6HR MAX TEMP:  82;

IMPERIAL       MOCLDY    75  22  13 W10       29.79S
6HR MIN TEMP:  75; 6HR MAX TEMP:  80;

BLYTHE         PTCLDY    67  33  28 N5        29.80R
6HR MIN TEMP:  67; 6HR MAX TEMP:  85;

NEEDLES        CLEAR     73  18  12 W6        29.83S
6HR MIN TEMP:  73; 6HR MAX TEMP:  90;

$$

NVZ020-UTZ003-261300-
SOUTHERN NEVADA-UTAH

CITY           SKY/WX    TMP DP  RH WIND       PRES   REMARKS
LAS VEGAS      PTCLDY    71  28  20 CALM      29.89S
6HR MIN TEMP:  70; 6HR MAX TEMP:  82;

SALT LAKE CITY PTCLDY    49  36  61 S5        30.15R
6HR MIN TEMP:  49; 6HR MAX TEMP:  55;

$$

NMZ009-TXZ055-261300-
NEW MEXICO-WEST TEXAS

CITY           SKY/WX    TMP DP  RH WIND       PRES   REMARKS
ALBUQUERQUE    CLEAR     51  29  42 CALM      30.07S
6HR MIN TEMP:  48; 6HR MAX TEMP:  61;

EL PASO        PTCLDY    54  38  54 S3        30.05F
6HR MIN TEMP:  53; 6HR MAX TEMP:  61;

$$


........................KEY........................
SKY/WX - SKY CONDITION/WEATHER
TMP    - TEMPERATURE IN FAHRENHEIT
DP     - DEW POINT IN FAHRENHEIT
RH     - RELATIVE HUMIDITY IN PERCENT
WIND   - DIRECTION AND SPEED IN MILES PER HOUR (MPH)
VRB    - VARIABLE WIND DIRECTION
PRES   - MEAN SEA LEVEL PRESSURE IN INCHES OF MERCURY
         F - FALLING PRESSURE   R - RISING PRESSURE
         S - STEADY PRESSURE
VSB    - VISIBILITY IN MILES
HX     - HEAT INDEX IN FAHRENHEIT
WCI    - WIND CHILL INDEX IN FAHRENHEIT
TC     - TEMPERATURE IN CELSIUS WHICH IS ALSO KNOWN AS
         TEMPERATURE IN CENTIGRADE
AFB    - AIR FORCE BASE
         LUKE AFB IS LUKE AIR FORCE BASE
         DAVIS-MONTHAN IS DAVIS-MONTHAN AIR FORCE BASE
NAS    - NAVAL AIR STATION
         EL CENTRO NAS IS EL CENTRO NAVAL AIR STATION
N/A    - NOT AVAILABLE





USA.gov is the U.S. government's official web portal to all federal, state and local government web resources and services.